Weather History for KOLF - February, 2014

Change the Weather History Date:

Friday, February 28, 2014

  Actual Average Record
Temperature  
Mean Temperature 2 °F -  
Max Temperature 16 °F 35 °F 64 °F (2011)
Min Temperature -12 °F 11 °F -12 °F (2009)
Degree Days  
Heating Degree Days 63    
Cooling Degree Days 0    
Moisture  
Dew Point -12 °F    
Average Humidity 51    
Maximum Humidity 61    
Minimum Humidity 41    
Precipitation  
Precipitation 0.00 in 0.02 in 0.16 in (2006)
Month to date precipitation 0.08 0.21  
Year to date precipitation 0.14 0.52  
Sea Level Pressure  
Sea Level Pressure 30.29 in    
Wind  
Wind Speed 18 mph (NNW)    
Max Wind Speed 25 mph    
Max Gust Speed 32 mph    
Visibility 10 miles    
Events      
T = Trace of Precipitation, MM = Missing Value Source: NWS Daily Summary

Daily Weather History Graph

Daily Weather History Graph

Search for Another Location

Airport or City:

Trip Planner

Search our weather history database for the weather conditions in past years. The results will help you decide how hot, cold, wet, or windy it might be!

Date:

Astronomy

Feb. 28, 2014 Rise Set
Actual Time 6:45 AM MST 5:45 PM MST
Civil Twilight 6:13 AM MST 6:16 PM MST
Nautical Twilight 5:37 AM MST 6:52 PM MST
Astronomical Twilight 5:01 AM MST 7:28 PM MST
Moon 6:02 AM MST (2/28) 5:26 PM MST (2/28)
Length of Visible Light 12h 02m
Length of Day
11h 00m
Waning Crescent, 0% of the Moon is Illuminated
Feb 28
Waning Crescent
Mar 1
New
Mar 8
First Quarter
Mar 16
Full
Mar 23
Last Quarter

Hourly Weather History & Observations

Time (MST) Temp. Windchill Dew Point Humidity Pressure Visibility Wind Dir Wind Speed Gust Speed Precip Events Conditions
12:53 AM 14.0 °F -5.5 °F 1.9 °F 59% 29.86 in 10.0 mi NW 25.3 mph 32.2 mph N/A   Overcast
1:53 AM 12.9 °F -6.5 °F -0.0 °F 56% 29.91 in 10.0 mi NW 24.2 mph - N/A   Overcast
2:53 AM 10.0 °F -9.1 °F -4.0 °F 53% 29.97 in 10.0 mi NNW 20.7 mph 31.1 mph N/A   Overcast
3:53 AM 9.0 °F -10.0 °F -4.0 °F 56% 30.02 in 10.0 mi NNW 19.6 mph 25.3 mph N/A   Overcast
4:53 AM 8.1 °F -10.7 °F -5.1 °F 55% 30.09 in 10.0 mi NNW 18.4 mph 24.2 mph N/A   Mostly Cloudy
5:50 AM 5.0 °F -14.7 °F -5.8 °F 61% 30.04 in 10.0 mi NNW 18.4 mph - N/A   Mostly Cloudy
5:53 AM 5.0 °F -15.7 °F -7.1 °F 58% 30.16 in 10.0 mi NNW 20.7 mph 24.2 mph N/A   Mostly Cloudy
6:01 AM 3.9 °F -16.1 °F -8.0 °F 58% 30.05 in 10.0 mi NNW 18.4 mph - N/A   Mostly Cloudy
6:53 AM 1.9 °F -14.7 °F -11.0 °F 55% 30.22 in 10.0 mi North 11.5 mph 23.0 mph N/A   Overcast
7:53 AM 1.0 °F -18.0 °F -13.0 °F 52% 30.28 in 10.0 mi North 15.0 mph - N/A   Overcast
8:53 AM 1.0 °F -19.9 °F -13.0 °F 52% 30.28 in 10.0 mi NNW 18.4 mph - N/A   Mostly Cloudy
9:53 AM 1.9 °F -17.5 °F -13.0 °F 50% 30.29 in 10.0 mi North 16.1 mph - N/A   Clear
10:53 AM 3.9 °F -15.0 °F -13.0 °F 46% 30.31 in 10.0 mi NNW 16.1 mph - N/A   Partly Cloudy
11:53 AM 5.0 °F -13.0 °F -11.9 °F 46% 30.33 in 10.0 mi NNW 15.0 mph 19.6 mph N/A   Mostly Cloudy
12:53 PM 5.0 °F -10.8 °F -13.0 °F 43% 30.33 in 10.0 mi NW 11.5 mph 20.7 mph N/A   Scattered Clouds
1:53 PM 5.0 °F -12.3 °F -13.0 °F 43% 30.34 in 10.0 mi NW 13.8 mph 23.0 mph N/A   Partly Cloudy
2:53 PM 5.0 °F -14.2 °F -14.1 °F 41% 30.35 in 10.0 mi NNW 17.3 mph 21.9 mph N/A   Partly Cloudy
3:53 PM 3.9 °F -13.7 °F -15.0 °F 41% 30.37 in 10.0 mi North 13.8 mph - N/A   Mostly Cloudy
4:53 PM 1.0 °F -17.3 °F -16.1 °F 45% 30.40 in 10.0 mi NNW 13.8 mph - N/A   Scattered Clouds
5:53 PM -2.0 °F -18.7 °F -18.0 °F 47% 30.44 in 10.0 mi North 10.4 mph - N/A   Clear
6:53 PM -5.1 °F -22.5 °F -18.9 °F 51% 30.50 in 10.0 mi North 10.4 mph - N/A   Clear
7:53 PM -7.1 °F -23.9 °F -18.9 °F 56% 30.53 in 10.0 mi North 9.2 mph - N/A   Scattered Clouds
8:53 PM -8.0 °F -28.0 °F -20.9 °F 53% 30.55 in 10.0 mi NNW 12.7 mph - N/A   Clear
9:53 PM -9.0 °F -28.4 °F -20.9 °F 56% 30.60 in 10.0 mi North 11.5 mph - N/A   Scattered Clouds
10:53 PM -11.0 °F -30.9 °F -24.0 °F 53% 30.62 in 10.0 mi North 11.5 mph - N/A   Mostly Cloudy
11:53 PM -11.9 °F -28.7 °F -25.1 °F 52% 30.66 in 10.0 mi North 8.1 mph - N/A   Clear